This demonstration page uses our WeatherBlox Daily Observations layout. Learn more.

39.92423, -83.80882

Hourly Observations for December 2, 2018

Temp ( °F °C ) Dew Point ( °F °C ) Humidity (%) Winds ( mph kmh ) Pressure ( in mb ) Visibility ( mi km ) Precip ( " mm )
12:56 am 00:56 Mostly Cloudy 54 12.2 53 11.7 97 97 SSE 10 17 29.52 1000 10 16.0934 0 0
1:56 am 01:56 Mostly Cloudy 54 12.2 53 11.7 97 97 S 9 15 29.51 999 10 16.0934 0 0
2:13 am 02:13 Mostly Clear 54 12 54 12 100 100 S 8 13 29.53 1000 10 16.0934 0 0
2:56 am 02:56 Mostly Clear 54 12.2 53 11.7 97 97 S 9 15 29.52 1000 10 16.0934 0 0
3:56 am 03:56 Clear 54 12.2 54 12.2 100 100 SSW 9 15 29.52 1000 10 16.0934 0 0
4:56 am 04:56 Clear 53 11.7 52 11.1 96 96 SSW 7 11 29.52 1000 10 16.0934 0 0
5:56 am 05:56 Clear 52 11.1 51 10.6 97 97 S 9 15 29.52 1000 10 16.0934 0 0
6:56 am 06:56 Clear 52 11.1 50 10 93 93 S 8 13 29.53 1000 10 16.0934 0 0
7:56 am 07:56 Sunny 51 10.6 50 10 96 96 S 10 17 29.53 1000 10 16.0934 0 0
8:56 am 08:56 Sunny 53 11.7 49 9.4 86 86 S 12 19 29.54 1000 10 16.0934 0 0
9:56 am 09:56 Sunny 55 12.8 48 8.9 77 77 S 15 24 29.54 1000 10 16.0934 0 0
10:56 am 10:56 Sunny 58 14.4 47 8.3 67 67 S 17 28 29.51 999 10 16.0934 0 0
11:56 am 11:56 Sunny 60 15.6 45 7.2 58 58 S 17 28 29.49 999 10 16.0934 0 0
12:56 pm 12:56 Sunny 61 16.1 45 7.2 56 56 S 17 28 29.44 997 10 16.0934 0 0
1:56 pm 13:56 Mostly Sunny 62 16.7 45 7.2 54 54 S 17 28 29.41 996 10 16.0934 0 0
2:56 pm 14:56 Mostly Cloudy 61 16.1 44 6.7 54 54 SW 17 28 29.41 996 10 16.0934 0 0
3:56 pm 15:56 Mostly Sunny 61 16.1 40 4.4 46 46 WSW 26 43 29.43 997 10 16.0934 0 0
4:56 pm 16:56 Cloudy 57 13.9 42 5.6 58 58 W 22 35 29.48 998 10 16.0934 0 0
5:56 pm 17:56 Cloudy 49 9.4 43 6.1 80 80 W 12 19 29.54 1000 10 16.0934 0 0
6:56 pm 18:56 Cloudy 48 8.9 39 3.9 71 71 W 17 28 29.59 1002 10 16.0934 0 0
8:56 pm 20:56 Mostly Clear 44 6.7 35 1.7 71 71 W 18 30 29.65 1004 10 16.0934 0 0
9:56 pm 21:56 Clear 42 5.6 34 1.1 73 73 WSW 20 31 29.67 1005 10 16.0934 0 0
10:56 pm 22:56 Cloudy 42 5.6 35 1.7 76 76 WSW 18 30 29.68 1005 10 16.0934 0 0
11:56 pm 23:56 Cloudy 42 5.6 34 1.1 73 73 W 26 43 29.7 1006 10 16.0934 0 0

Powered by AerisWeather